Location: Krakow
(50.0830°N, 19.9170°E)
Time: 19:22:02
(UTC+01:00)

Transit 2A - Pass Details

Date: 10 February 2023
Orbit: 591 x 964 km, 66.7° (Epoch: 21 March)

Event Time Altitude Azimuth Distance (km) Brightness Sun altitude
Rises 16:48:30 0° 249° (WSW) 3,101 14.0 -0.7°
Reaches altitude 10° 16:50:57 10° 259° (W) 2,244 10.4 -1.1°
Maximum altitude 16:55:36 33° 324° (NW) 1,305 7.4 -1.8°
Drops below altitude 10° 17:00:45 10° 28° (NNE) 2,484 8.2 -2.6°
Sets 17:03:36 0° 37° (NE) 3,484 8.9 -3.0°
